Погода в Эль-Хазме

Йемен     16°09′37″N   44°46′29″E
темп.,
°C
ветер,
м/с
пор.,
м/с
влажн.,
%
обл.,
%
осадки,
мм/ч
давл.,
гПа
погр.,
м
27 ноября, сб
сб2700:00+20св11400 0.0 101711
03:00+19св22420 0.0 101711
06:00+17в11450 0.0 101911
09:00+22юв12330 0.0 1020555
12:00+26юв33250 0.0 10161739
15:00+28в45220 0.0 10142195
18:00+24всв58280 0.0 1016217
21:00+22ссв34320 0.0 101856
28 ноября, вс
вс2800:00+20св22370 0.0 101919
03:00+18всв22390 0.0 101811
06:00+16в11420 0.0 102011
09:00+21вюв12310 0.0 1021721
12:00+25юв45230 0.0 10171878
15:00+27вюв45180 0.0 10152103
18:00+23всв46211 0.0 1016107
21:00+21св44240 0.0 101958
29 ноября, пн
пн2900:00+18св22280 0.0 101913
03:00+17в22320 0.0 101911
06:00+15в11370 0.0 102111
09:00+20вюв12270 0.0 1022697
12:00+24юв34220 0.0 10181852
15:00+26вюв44190 0.0 10152106
18:00+22всв57240 0.0 1017136
21:00+20св34300 0.0 101974
30 ноября, вт
вт3000:00+17св22360 0.0 101912
03:00+16всв11400 0.0 101811
06:00+14в11430 0.0 102011
09:00+19юв11310 0.0 1021632
12:00+23юв232117 0.0 10171834
15:00+26вюв34155 0.0 10132205
18:00+22всв46220 0.0 1015118
21:00+18св22284 0.0 101824
1 декабря, ср
ср100:00+16всв22325 0.0 101811
03:00+15в12350 0.0 101711
06:00+13всв11380 0.0 101811
09:00+18ююв11270 0.0 1019548
12:00+22ююв23180 0.0 10161780
15:00+24ююв44140 0.0 10121767
18:00+20вюв33162 0.0 101426
21:00+17св21210 0.0 101613